TimePDT,TemperatureF,Dew PointF,Humidity,Sea Level PressureIn,VisibilityMPH,Wind Direction,Wind SpeedMPH,Gust SpeedMPH,PrecipitationIn,Events,Conditions,WindDirDegrees,DateUTC
12:53 AM,55.0,41.0,59,29.89,10.0,NNE,3.5,-,N/A,,Clear,20,2013-10-13 07:53:00
1:53 AM,51.1,42.1,71,29.89,10.0,Calm,Calm,-,N/A,,Clear,0,2013-10-13 08:53:00
2:53 AM,55.9,45.0,67,29.89,10.0,NNW,5.8,-,N/A,,Clear,340,2013-10-13 09:53:00
3:53 AM,55.0,46.0,72,29.89,10.0,NW,8.1,-,N/A,,Clear,310,2013-10-13 10:53:00
4:53 AM,55.0,46.9,74,29.91,10.0,NW,11.5,-,N/A,,Clear,310,2013-10-13 11:53:00
5:53 AM,53.1,46.9,80,29.92,10.0,WNW,10.4,-,N/A,,Clear,300,2013-10-13 12:53:00
6:53 AM,52.0,46.9,83,29.95,10.0,WNW,9.2,-,N/A,,Clear,300,2013-10-13 13:53:00
7:53 AM,53.1,46.0,77,29.96,10.0,WNW,11.5,-,N/A,,Clear,300,2013-10-13 14:53:00
8:53 AM,57.9,44.1,60,29.98,10.0,WNW,12.7,21.9,N/A,,Clear,300,2013-10-13 15:53:00
9:53 AM,61.0,42.1,50,29.99,10.0,WNW,16.1,-,N/A,,Clear,290,2013-10-13 16:53:00
10:53 AM,64.9,41.0,42,30.00,10.0,WNW,16.1,-,N/A,,Clear,300,2013-10-13 17:53:00
11:53 AM,68.0,41.0,37,30.00,10.0,NW,13.8,-,N/A,,Clear,310,2013-10-13 18:53:00
12:53 PM,71.1,39.9,32,29.99,10.0,NW,13.8,-,N/A,,Clear,310,2013-10-13 19:53:00
1:53 PM,-9999,53.6,N/A,29.97,-9999.0,North,-9999.0,-,N/A,,Unknown,0,2013-10-13 20:53:00
2:53 PM,73.0,39.0,29,29.96,10.0,WNW,12.7,-,N/A,,Clear,300,2013-10-13 21:53:00
3:53 PM,73.9,39.0,28,29.96,10.0,NW,10.4,20.7,N/A,,Clear,320,2013-10-13 22:53:00
4:53 PM,73.9,37.9,27,29.96,10.0,WNW,11.5,-,N/A,,Clear,300,2013-10-13 23:53:00
5:53 PM,73.0,37.9,28,29.97,10.0,NW,8.1,-,N/A,,Clear,310,2013-10-14 00:53:00
6:53 PM,69.1,39.9,35,29.98,10.0,WNW,4.6,-,N/A,,Clear,300,2013-10-14 01:53:00
7:53 PM,64.9,43.0,45,30.00,10.0,West,5.8,-,N/A,,Clear,260,2013-10-14 02:53:00
8:53 PM,62.1,39.9,44,30.02,10.0,West,4.6,-,N/A,,Clear,270,2013-10-14 03:53:00
9:53 PM,62.1,41.0,46,30.03,10.0,WNW,9.2,-,N/A,,Clear,300,2013-10-14 04:53:00
10:53 PM,60.1,39.9,47,30.03,10.0,WNW,6.9,-,N/A,,Clear,300,2013-10-14 05:53:00
11:53 PM,57.9,39.0,49,30.03,10.0,NW,6.9,-,N/A,,Clear,310,2013-10-14 06:53:00